Time,TemperatureF,DewpointF,PressureIn,WindDirection,WindDirectionDegrees,WindSpeedMPH,WindSpeedGustMPH,Humidity,HourlyPrecipIn,Conditions,Clouds,dailyrainin,SoftwareType,DateUTC
2014-11-28 00:11:00,22.8,21.0,30.16,NW,307,3.0,7.0,92,0.00,,,0.00,weatherlink.com 1.10,2014-11-28 05:11:00,
2014-11-28 00:26:00,22.7,21.0,30.17,NW,323,3.0,7.0,93,0.00,,,0.00,weatherlink.com 1.10,2014-11-28 05:26:00,
2014-11-28 00:41:00,22.5,21.0,30.16,NNW,335,5.0,9.0,93,0.00,,,0.00,weatherlink.com 1.10,2014-11-28 05:41:00,
2014-11-28 00:56:00,22.4,21.0,30.17,NE,36,2.0,10.0,93,0.00,,,0.00,weatherlink.com 1.10,2014-11-28 05:56:00,
2014-11-28 01:11:00,22.1,20.0,30.17,North,11,7.0,10.0,93,0.00,,,0.00,weatherlink.com 1.10,2014-11-28 06:11:00,
2014-11-28 01:26:00,21.8,20.0,30.18,NW,323,2.0,9.0,93,0.00,,,0.00,weatherlink.com 1.10,2014-11-28 06:26:00,
2014-11-28 01:41:00,21.6,20.0,30.18,NW,305,3.0,6.0,92,0.00,,,0.00,weatherlink.com 1.10,2014-11-28 06:41:00,
2014-11-28 01:56:00,21.2,19.0,30.18,NW,311,3.0,7.0,92,0.00,,,0.00,weatherlink.com 1.10,2014-11-28 06:56:00,
2014-11-28 02:11:00,20.4,19.0,30.19,NW,309,3.0,8.0,92,0.00,,,0.00,weatherlink.com 1.10,2014-11-28 07:11:00,
2014-11-28 02:26:00,19.9,18.0,30.20,WNW,298,0.0,5.0,92,0.00,,,0.00,weatherlink.com 1.10,2014-11-28 07:26:00,
2014-11-28 02:41:00,20.0,18.0,30.20,WNW,301,0.0,3.0,92,0.00,,,0.00,weatherlink.com 1.10,2014-11-28 07:41:00,
2014-11-28 02:56:00,19.7,18.0,30.20,NW,309,2.0,5.0,92,0.00,,,0.00,weatherlink.com 1.10,2014-11-28 07:56:00,
2014-11-28 03:11:00,19.3,17.0,30.20,NW,316,5.0,5.0,91,0.00,,,0.00,weatherlink.com 1.10,2014-11-28 08:11:00,
2014-11-28 03:26:00,19.0,17.0,30.20,West,273,0.0,4.0,91,0.00,,,0.00,weatherlink.com 1.10,2014-11-28 08:26:00,
2014-11-28 03:42:00,18.6,16.0,30.21,WNW,285,0.0,2.0,91,0.00,,,0.00,weatherlink.com 1.10,2014-11-28 08:42:00,
2014-11-28 03:57:00,18.1,16.0,30.21,West,264,0.0,5.0,91,0.00,,,0.00,weatherlink.com 1.10,2014-11-28 08:57:00,
2014-11-28 04:12:00,17.6,16.0,30.21,WNW,291,0.0,2.0,91,0.00,,,0.00,weatherlink.com 1.10,2014-11-28 09:12:00,
2014-11-28 04:27:00,17.3,15.0,30.22,WSW,243,0.0,1.0,91,0.00,,,0.00,weatherlink.com 1.10,2014-11-28 09:27:00,
2014-11-28 04:42:00,17.0,15.0,30.22,WNW,285,0.0,2.0,91,0.00,,,0.00,weatherlink.com 1.10,2014-11-28 09:42:00,
2014-11-28 04:57:00,16.7,15.0,30.23,WNW,287,0.0,2.0,91,0.00,,,0.00,weatherlink.com 1.10,2014-11-28 09:57:00,
2014-11-28 05:12:00,16.5,14.0,30.23,WNW,295,0.0,3.0,91,0.00,,,0.00,weatherlink.com 1.10,2014-11-28 10:12:00,
2014-11-28 05:27:00,16.3,14.0,30.24,WNW,283,1.0,3.0,90,0.00,,,0.00,weatherlink.com 1.10,2014-11-28 10:27:00,
2014-11-28 05:42:00,16.3,14.0,30.24,WNW,285,2.0,3.0,90,0.00,,,0.00,weatherlink.com 1.10,2014-11-28 10:42:00,
2014-11-28 13:29:00,19.5,17.0,30.27,West,281,1.0,13.0,88,0.00,,,0.00,weatherlink.com 1.10,2014-11-28 18:29:00,
2014-11-28 13:42:00,20.4,18.0,30.27,NE,46,2.0,11.0,89,0.00,,,0.00,weatherlink.com 1.10,2014-11-28 18:42:00,
2014-11-28 13:57:00,20.3,18.0,30.27,NW,307,0.0,8.0,89,0.00,,,0.00,weatherlink.com 1.10,2014-11-28 18:57:00,
2014-11-28 14:12:00,19.7,17.0,30.27,WNW,283,4.0,6.0,89,0.00,,,0.00,weatherlink.com 1.10,2014-11-28 19:12:00,
2014-11-28 14:27:00,20.3,18.0,30.27,WNW,288,0.0,8.0,89,0.00,,,0.00,weatherlink.com 1.10,2014-11-28 19:27:00,
2014-11-28 14:42:00,20.2,17.0,30.27,West,274,0.0,9.0,88,0.00,,,0.00,weatherlink.com 1.10,2014-11-28 19:42:00,
2014-11-28 14:57:00,20.4,17.0,30.27,WNW,288,5.0,8.0,88,0.00,,,0.00,weatherlink.com 1.10,2014-11-28 19:57:00,
2014-11-28 15:12:00,19.8,17.0,30.28,WSW,250,3.0,8.0,88,0.00,,,0.00,weatherlink.com 1.10,2014-11-28 20:12:00,
2014-11-28 15:27:00,19.6,16.0,30.28,West,276,4.0,9.0,87,0.00,,,0.00,weatherlink.com 1.10,2014-11-28 20:27:00,
2014-11-28 15:42:00,19.3,16.0,30.29,West,263,2.0,8.0,86,0.00,,,0.00,weatherlink.com 1.10,2014-11-28 20:42:00,
2014-11-28 15:57:00,19.3,16.0,30.29,NW,315,0.0,7.0,87,0.00,,,0.00,weatherlink.com 1.10,2014-11-28 20:57:00,
2014-11-28 16:33:00,17.9,14.0,30.30,NW,305,0.0,4.0,85,0.00,,,0.00,weatherlink.com 1.10,2014-11-28 21:33:00,
2014-11-28 16:43:00,17.5,14.0,30.30,WNW,285,6.0,6.0,84,0.00,,,0.00,weatherlink.com 1.10,2014-11-28 21:43:00,
2014-11-28 16:58:00,17.4,14.0,30.30,West,272,2.0,7.0,85,0.00,,,0.00,weatherlink.com 1.10,2014-11-28 21:58:00,
2014-11-28 17:13:00,17.4,14.0,30.31,West,281,3.0,7.0,85,0.00,,,0.00,weatherlink.com 1.10,2014-11-28 22:13:00,
2014-11-28 17:28:00,17.3,14.0,30.31,WNW,283,0.0,4.0,86,0.00,,,0.00,weatherlink.com 1.10,2014-11-28 22:28:00,
2014-11-28 17:43:00,17.4,14.0,30.31,West,278,2.0,4.0,85,0.00,,,0.00,weatherlink.com 1.10,2014-11-28 22:43:00,
2014-11-28 17:58:00,17.0,13.0,30.31,West,276,2.0,5.0,85,0.00,,,0.00,weatherlink.com 1.10,2014-11-28 22:58:00,
2014-11-28 18:13:00,16.5,13.0,30.32,WNW,288,0.0,0.0,86,0.00,,,0.00,weatherlink.com 1.10,2014-11-28 23:13:00,
2014-11-28 18:28:00,16.0,13.0,30.31,NW,314,0.0,0.0,87,0.00,,,0.00,weatherlink.com 1.10,2014-11-28 23:28:00,
2014-11-28 18:43:00,16.2,13.0,30.32,WNW,284,0.0,0.0,87,0.00,,,0.00,weatherlink.com 1.10,2014-11-28 23:43:00,
2014-11-28 18:58:00,16.9,13.0,30.32,West,277,0.0,3.0,85,0.00,,,0.00,weatherlink.com 1.10,2014-11-28 23:58:00,
2014-11-28 19:13:00,17.0,13.0,30.32,West,271,0.0,0.0,85,0.00,,,0.00,weatherlink.com 1.10,2014-11-29 00:13:00,
2014-11-28 19:28:00,16.7,13.0,30.32,West,274,0.0,0.0,84,0.00,,,0.00,weatherlink.com 1.10,2014-11-29 00:28:00,
2014-11-28 19:43:00,16.1,12.0,30.32,WNW,284,0.0,0.0,85,0.00,,,0.00,weatherlink.com 1.10,2014-11-29 00:43:00,
2014-11-28 19:58:00,15.5,12.0,30.32,WNW,284,0.0,0.0,86,0.00,,,0.00,weatherlink.com 1.10,2014-11-29 00:58:00,
2014-11-28 20:13:00,15.5,12.0,30.32,West,263,3.0,4.0,85,0.00,,,0.00,weatherlink.com 1.10,2014-11-29 01:13:00,
2014-11-28 20:28:00,15.6,12.0,30.32,West,267,2.0,2.0,84,0.00,,,0.00,weatherlink.com 1.10,2014-11-29 01:28:00,
2014-11-28 20:43:00,16.0,12.0,30.32,West,265,0.0,3.0,83,0.00,,,0.00,weatherlink.com 1.10,2014-11-29 01:43:00,
2014-11-28 20:58:00,15.9,11.0,30.32,West,276,1.0,4.0,82,0.00,,,0.00,weatherlink.com 1.10,2014-11-29 01:58:00,
2014-11-28 21:13:00,16.0,12.0,30.32,WSW,256,3.0,4.0,83,0.00,,,0.00,weatherlink.com 1.10,2014-11-29 02:13:00,
2014-11-28 21:28:00,16.6,12.0,30.33,West,259,3.0,4.0,82,0.00,,,0.00,weatherlink.com 1.10,2014-11-29 02:28:00,
2014-11-28 21:43:00,16.6,12.0,30.33,SW,224,0.0,3.0,82,0.00,,,0.00,weatherlink.com 1.10,2014-11-29 02:43:00,
2014-11-28 21:58:00,16.7,12.0,30.33,SW,229,2.0,2.0,83,0.00,,,0.00,weatherlink.com 1.10,2014-11-29 02:58:00,
2014-11-28 22:13:00,16.8,13.0,30.33,SW,226,0.0,0.0,83,0.00,,,0.00,weatherlink.com 1.10,2014-11-29 03:13:00,
2014-11-28 22:28:00,17.2,13.0,30.34,WSW,252,0.0,0.0,82,0.00,,,0.00,weatherlink.com 1.10,2014-11-29 03:28:00,
2014-11-28 22:43:00,17.2,13.0,30.33,SW,231,0.0,0.0,82,0.00,,,0.00,weatherlink.com 1.10,2014-11-29 03:43:00,
2014-11-28 22:58:00,17.1,13.0,30.34,SW,236,0.0,0.0,83,0.00,,,0.00,weatherlink.com 1.10,2014-11-29 03:58:00,